Date String (YYYY-MM-DD hh:mm:ss) UTC,Instrument flags,Ambient pressure (hPa),Sample flow (lpm),Bypass flow (lpm),Sample temperature (°C),Ambient temperature (°C),ASC tube jacket temperature (°C),LED temperature (°C),Box temperature (°C),Sample RH (%),Span deviation,Mass concentration (μg/m³),Mass concentration (μg/m³),Mass concentration (μg/m³)
DateTimeUTC,F1_M11,P_M11,Q1_M11,Q2_M11,T1_M11,T2_M11,T3_M11,T4_M11,T5_M11,U1_M11,ZSPAN_M11,X2_M11,X0_M11,X1_M11
2022-03-13 10:00:00,,0822.2,4.99,0.00,22.2,21.4,00.0,31.3,24.0,11.2,0000.0,0002.47,0007.48,0001.75
2022-03-13 10:01:00,,0822.3,5.00,0.00,22.2,21.4,00.0,31.3,24.0,11.2,0000.0,0002.41,0007.34,0001.75
2022-03-13 10:02:00,,0822.4,5.01,0.00,22.2,21.4,00.0,31.3,24.0,11.2,0000.0,0002.41,0007.29,0001.75
2022-03-13 10:03:00,,0822.2,5.00,0.00,22.2,21.4,00.0,31.3,24.0,11.1,0000.0,0002.35,0005.93,0001.75
2022-03-13 10:04:00,,0822.3,5.00,0.00,22.2,21.4,00.0,31.3,24.0,10.9,0000.0,0002.31,0005.96,0001.75
2022-03-13 10:05:00,,0822.1,5.01,0.00,22.2,21.5,00.0,31.3,24.0,11.0,0000.0,0002.29,0005.26,0001.74
2022-03-13 10:06:00,,0822.2,5.01,0.00,22.3,21.5,00.0,31.3,24.0,10.9,0000.0,0002.31,0004.65,0001.73
2022-03-13 10:07:00,,0822.3,4.99,0.00,22.3,21.5,00.0,31.3,24.0,10.9,0000.0,0002.30,0005.34,0001.71
2022-03-13 10:08:00,,0822.3,4.99,0.00,22.3,21.5,00.0,31.3,24.1,11.0,0000.0,0002.25,0005.42,0001.70
2022-03-13 10:09:00,,0822.2,5.00,0.00,22.3,21.5,00.0,31.3,24.1,11.0,0000.0,0002.19,0005.18,0001.68
2022-03-13 10:10:00,,0822.1,5.00,0.00,22.3,21.5,00.0,31.3,24.1,11.0,0000.0,0002.17,0005.08,0001.67
2022-03-13 10:11:00,,0822.1,5.01,0.00,22.3,21.6,00.0,31.3,24.1,11.0,0000.0,0002.19,0005.09,0001.66
2022-03-13 10:12:00,,0822.2,5.00,0.00,22.3,21.6,00.0,31.3,24.1,10.9,0000.0,0002.21,0005.14,0001.65
2022-03-13 10:13:00,,0822.2,4.99,0.00,22.3,21.6,00.0,31.3,24.1,11.0,0000.0,0002.23,0005.19,0001.67
2022-03-13 10:14:00,,0822.3,5.00,0.00,22.3,21.6,00.0,31.3,24.1,11.0,0000.0,0002.22,0005.18,0001.67
2022-03-13 10:15:00,,0822.2,4.99,0.00,22.3,21.5,00.0,31.3,24.1,10.9,0000.0,0002.26,0005.21,0001.68
2022-03-13 10:16:00,,0822.2,4.99,0.00,22.3,21.5,00.0,31.3,24.1,10.9,0000.0,0002.28,0004.77,0001.69
2022-03-13 10:17:00,,0822.2,5.00,0.00,22.3,21.6,00.0,31.3,24.1,10.9,0000.0,0002.26,0004.72,0001.70
2022-03-13 10:18:00,,0822.2,5.01,0.00,22.3,21.6,00.0,31.3,24.1,10.9,0000.0,0002.23,0004.02,0001.72
2022-03-13 10:19:00,,0822.2,5.00,0.00,22.3,21.6,00.0,31.3,24.1,10.9,0000.0,0002.25,0003.42,0001.74
2022-03-13 10:20:00,,0822.1,5.00,0.00,22.3,21.6,00.0,31.3,24.0,11.2,0000.0,0002.28,0003.45,0001.76
2022-03-13 10:21:00,,0822.1,5.01,0.00,22.3,21.5,00.0,31.3,24.0,11.4,0000.0,0002.31,0003.92,0001.76
2022-03-13 10:22:00,,0822.1,4.99,0.00,22.2,21.5,00.0,31.3,24.0,11.3,0000.0,0002.30,0004.39,0001.77
2022-03-13 10:23:00,,0822.1,4.99,0.00,22.2,21.5,00.0,31.3,23.9,11.2,0000.0,0002.30,0004.42,0001.78
2022-03-13 10:24:00,,0822.1,5.02,0.00,22.2,21.4,00.0,31.2,23.9,11.1,0000.0,0002.30,0004.43,0001.78
2022-03-13 10:25:00,,0822.1,5.00,0.00,22.2,21.4,00.0,31.2,24.0,11.2,0000.0,0002.31,0004.55,0001.79
2022-03-13 10:26:00,,0822.0,5.00,0.00,22.2,21.4,00.0,31.2,24.0,11.2,0000.0,0002.30,0006.76,0001.79
2022-03-13 10:27:00,,0822.1,4.99,0.00,22.2,21.4,00.0,31.2,24.0,11.1,0000.0,0002.30,0006.83,0001.81
2022-03-13 10:28:00,,0822.1,4.99,0.00,22.2,21.4,00.0,31.2,24.0,11.1,0000.0,0002.32,0006.97,0001.83
2022-03-13 10:29:00,,0822.1,5.02,0.00,22.2,21.5,00.0,31.2,24.0,11.1,0000.0,0002.31,0006.96,0001.83
2022-03-13 10:30:00,,0822.1,5.00,0.00,22.2,21.5,00.0,31.2,24.0,11.1,0000.0,0002.34,0006.98,0001.83
2022-03-13 10:31:00,,0822.1,5.00,0.00,22.2,21.5,00.0,31.2,24.0,11.0,0000.0,0002.38,0007.19,0001.84
2022-03-13 10:32:00,,0822.0,4.99,0.00,22.2,21.5,00.0,31.2,24.1,10.9,0000.0,0002.38,0007.02,0001.85
2022-03-13 10:33:00,,0822.0,4.99,0.00,22.2,21.5,00.0,31.2,24.1,10.9,0000.0,0002.39,0006.63,0001.85
2022-03-13 10:34:00,,0821.9,5.01,0.00,22.3,21.5,00.0,31.2,24.0,10.8,0000.0,0002.39,0006.59,0001.87
2022-03-13 10:35:00,,0822.0,5.00,0.00,22.3,21.5,00.0,31.2,24.1,10.8,0000.0,0002.43,0006.66,0001.90
2022-03-13 10:36:00,,0822.0,4.99,0.00,22.3,21.5,00.0,31.2,24.1,10.9,0000.0,0002.49,0006.93,0001.92
2022-03-13 10:37:00,,0822.0,5.00,0.00,22.3,21.5,00.0,31.2,24.1,10.8,0000.0,0002.55,0006.07,0001.94
2022-03-13 10:38:00,,0821.9,5.02,0.00,22.3,21.5,00.0,31.2,24.1,10.8,0000.0,0002.58,0005.70,0001.96
2022-03-13 10:39:00,,0822.0,4.99,0.00,22.3,21.5,00.0,31.2,24.1,10.8,0000.0,0002.60,0005.69,0001.97
2022-03-13 10:40:00,,0821.9,5.00,0.00,22.3,21.5,00.0,31.2,24.1,10.8,0000.0,0002.65,0005.70,0002.00
2022-03-13 10:41:00,,0822.0,5.00,0.00,22.3,21.7,00.0,31.2,24.1,10.8,0000.0,0002.65,0005.81,0002.02
2022-03-13 10:42:00,,0822.0,5.00,0.00,22.4,22.3,00.0,31.3,24.3,10.8,0000.0,0002.63,0005.75,0002.02
2022-03-13 10:43:00,,0822.1,4.99,0.00,22.5,22.8,00.0,31.3,24.5,10.8,0000.0,0002.67,0006.00,0002.02
2022-03-13 10:44:00,,0822.1,5.00,0.00,22.6,22.8,00.0,31.4,24.6,10.7,0000.0,0002.72,0006.24,0002.03
2022-03-13 10:45:00,,0822.0,5.00,0.00,22.6,22.7,00.0,31.4,24.6,10.6,0000.0,0002.76,0006.37,0002.04
2022-03-13 10:46:00,,0821.9,5.00,0.00,22.6,22.5,00.0,31.4,24.6,10.6,0000.0,0002.75,0006.32,0002.02
2022-03-13 10:47:00,,0821.8,5.00,0.00,22.6,22.4,00.0,31.4,24.6,10.6,0000.0,0002.71,0006.28,0002.01
2022-03-13 10:48:00,,0821.8,4.99,0.00,22.6,22.3,00.0,31.4,24.6,10.6,0000.0,0002.69,0005.43,0002.00
2022-03-13 10:49:00,,0821.9,5.01,0.00,22.6,22.3,00.0,31.4,24.6,10.6,0000.0,0002.69,0005.15,0001.98
2022-03-13 10:50:00,,0822.0,5.01,0.00,22.6,22.2,00.0,31.5,24.5,10.6,0000.0,0002.69,0005.07,0002.00
2022-03-13 10:51:00,,0822.0,5.00,0.00,22.6,22.1,00.0,31.5,24.5,10.6,0000.0,0002.67,0005.02,0001.99
2022-03-13 10:52:00,,0821.9,4.99,0.00,22.6,22.1,00.0,31.5,24.5,10.6,0000.0,0002.66,0004.96,0001.98
2022-03-13 10:53:00,,0821.9,5.01,0.00,22.6,22.1,00.0,31.5,24.5,10.6,0000.0,0002.70,0005.06,0001.98
2022-03-13 10:54:00,,0821.9,5.00,0.00,22.6,22.0,00.0,31.5,24.5,10.6,0000.0,0002.69,0004.94,0001.98
2022-03-13 10:55:00,,0821.9,5.00,0.00,22.6,22.0,00.0,31.5,24.5,10.6,0000.0,0002.69,0004.50,0001.99
2022-03-13 10:56:00,,0821.9,5.02,0.00,22.6,22.0,00.0,31.5,24.5,10.6,0000.0,0002.71,0004.55,0002.00
2022-03-13 10:57:00,,0822.0,4.99,0.00,22.6,21.9,00.0,31.5,24.4,10.6,0000.0,0002.72,0004.59,0002.01
2022-03-13 10:58:00,,0821.8,4.99,0.00,22.6,21.9,00.0,31.5,24.4,10.6,0000.0,0002.74,0004.64,0002.02
2022-03-13 10:59:00,,0821.7,5.00,0.00,22.6,21.9,00.0,31.5,24.4,10.6,0000.0,0002.75,0004.57,0002.03
